Terminal Aerodrome Forecast
Issued by NWS Greer, SC

Home | Current Version | Previous Version | Text Only | Print | Product List | Glossary On
Versions: 1 2 3 4 5 6 7 8 9 10 11 12 13 14 15 16 17 18 19 20 21 22 23 24 25 26 27 28 29 30 31 32 33 34 35 36 37 38 39 40 41 42
000
FTUS42 KGSP 211120
TAFAVL
TAF
KAVL 211120Z 2112/2212 34011KT P6SM FEW045 BKN060
     FM211500 33011G19KT P6SM FEW250
     FM212300 32007KT P6SM FEW250
     FM220300 00000KT P6SM BKN250=

USA.gov is the U.S. government's official web portal to all federal, state and local government web resources and services.